Location: Caltech
(34.1382°N, 118.1253°W)
Time: 00:50:04
(UTC-07:00)

Saudisat 1A - Visible Passes

Search period start: 29 July 2016 00:00
Search period end: 08 August 2016 00:00
Orbit: 563 x 630 km, 64.6° (Epoch: 28 July)

Date Brightness Start Highest point End Pass type
(mag) Time Alt. Az. Time Alt. Az. Time Alt. Az.
30 Jul 10.6 00:00:41 19° NNW 00:00:41 19° NNW 00:02:33 10° N visible
30 Jul 10.4 22:33:05 15° NE 22:33:05 15° NE 22:33:52 10° NE visible
31 Jul 10.8 00:09:41 15° NW 00:09:41 15° NW 00:11:53 10° NNW visible
31 Jul 9.6 22:41:48 30° NNE 22:41:48 30° NNE 22:44:08 10° NNE visible
01 Aug 10.3 21:13:29 11° ENE 21:13:29 11° ENE 21:13:42 10° ENE visible
01 Aug 9.3 22:50:00 40° NW 22:50:00 40° NW 22:54:08 10° NNE visible
02 Aug 8.7 21:20:31 32° ESE 21:20:45 33° ESE 21:24:49 10° NE visible
02 Aug 10.3 22:56:53 11° WSW 23:00:14 23° NW 23:03:50 10° N visible
03 Aug 7.9 21:26:26 10° SSW 21:30:50 65° ESE 21:35:20 10° NE visible
03 Aug 11.1 23:08:31 10° WNW 23:10:43 13° NW 23:12:58 10° NNW visible
04 Aug 8.4 21:36:36 10° SW 21:41:02 65° WNW 21:45:33 10° NNE visible
05 Aug 9.7 21:47:14 10° WSW 21:51:19 34° NW 21:55:29 10° N visible
06 Aug 8.5 20:18:01 10° S 20:22:09 38° ESE 20:26:22 10° NE visible
06 Aug 10.8 21:58:25 10° W 22:01:44 20° NW 22:05:04 10° N visible
07 Aug 11.4 04:49:03 10° NNE 04:51:09 13° NE 04:53:13 10° ENE visible
07 Aug 8.0 20:27:49 10° SSW 20:32:16 77° ESE 20:36:48 10° NNE visible
07 Aug 11.5 22:10:37 10° WNW 22:12:15 12° NW 22:13:53 10° NNW visible
